Year,Month,Day,Hour,Minute,Value (Times are PST for temperature in C)
2018,07,15,00,00,15.60
2018,07,15,00,01,15.60
2018,07,15,00,02,15.60
2018,07,15,00,03,15.60
2018,07,15,00,04,15.60
2018,07,15,00,05,15.60
2018,07,15,00,06,15.60
2018,07,15,00,07,15.70
2018,07,15,00,08,15.70
2018,07,15,00,09,15.70
2018,07,15,00,10,15.70
2018,07,15,00,11,15.70
2018,07,15,00,12,15.70
2018,07,15,00,13,15.70
2018,07,15,00,14,15.70
2018,07,15,00,15,15.60
2018,07,15,00,16,15.60
2018,07,15,00,17,15.60
2018,07,15,00,18,15.60
2018,07,15,00,19,15.60
2018,07,15,00,20,15.60
2018,07,15,00,21,15.60
2018,07,15,00,22,15.60
2018,07,15,00,23,15.60
2018,07,15,00,24,15.60
2018,07,15,00,25,15.60
2018,07,15,00,26,15.60
2018,07,15,00,27,15.60
2018,07,15,00,28,15.60
2018,07,15,00,29,15.60
2018,07,15,00,30,15.60
2018,07,15,00,31,15.60
2018,07,15,00,32,15.60
2018,07,15,00,33,15.60
2018,07,15,00,34,15.60
2018,07,15,00,35,15.60
2018,07,15,00,36,15.60
2018,07,15,00,37,15.60
2018,07,15,00,38,15.60
2018,07,15,00,39,15.60
2018,07,15,00,40,15.70
2018,07,15,00,41,15.70
2018,07,15,00,42,15.80
2018,07,15,00,43,15.80
2018,07,15,00,44,15.90
2018,07,15,00,45,15.90
2018,07,15,00,46,16.00
2018,07,15,00,47,16.00
2018,07,15,00,48,16.10
2018,07,15,00,49,16.10
2018,07,15,00,50,16.20
2018,07,15,00,51,16.30
2018,07,15,00,52,16.40
2018,07,15,00,53,16.50
2018,07,15,00,54,16.50
2018,07,15,00,55,16.60
2018,07,15,00,56,16.70
2018,07,15,00,57,16.70
2018,07,15,00,58,16.80
2018,07,15,00,59,16.80
2018,07,15,01,00,16.90
2018,07,15,01,01,17.00
2018,07,15,01,02,17.00
2018,07,15,01,03,17.10
2018,07,15,01,04,17.10
2018,07,15,01,05,17.10
2018,07,15,01,06,17.20
2018,07,15,01,07,17.20
2018,07,15,01,08,17.20
2018,07,15,01,09,17.20
2018,07,15,01,10,17.30
2018,07,15,01,11,17.30
2018,07,15,01,12,17.30
2018,07,15,01,13,17.30
2018,07,15,01,14,17.30
2018,07,15,01,15,17.30
2018,07,15,01,16,17.30
2018,07,15,01,17,17.30
2018,07,15,01,18,17.30
2018,07,15,01,19,17.30
2018,07,15,01,20,17.20
2018,07,15,01,21,17.20
2018,07,15,01,22,17.20
2018,07,15,01,23,17.20
2018,07,15,01,24,17.20
2018,07,15,01,25,17.20
2018,07,15,01,26,17.10
2018,07,15,01,27,17.10
2018,07,15,01,28,17.10
2018,07,15,01,29,17.10
2018,07,15,01,30,17.00
2018,07,15,01,31,17.00
2018,07,15,01,32,17.00
2018,07,15,01,33,17.00
2018,07,15,01,34,17.00
2018,07,15,01,35,16.90
2018,07,15,01,36,16.90
2018,07,15,01,37,16.90
2018,07,15,01,38,16.90
2018,07,15,01,39,16.90
2018,07,15,01,40,16.90
2018,07,15,01,41,16.90
2018,07,15,01,42,16.80
2018,07,15,01,43,16.80
2018,07,15,01,44,16.80
2018,07,15,01,45,16.80
2018,07,15,01,46,16.80
2018,07,15,01,47,16.80
2018,07,15,01,48,16.80
2018,07,15,01,49,16.70
2018,07,15,01,50,16.70
2018,07,15,01,51,16.70
2018,07,15,01,52,16.70
2018,07,15,01,53,16.70
2018,07,15,01,54,16.70
2018,07,15,01,55,16.70
2018,07,15,01,56,16.70
2018,07,15,01,57,16.70
2018,07,15,01,58,16.70
2018,07,15,01,59,16.70
2018,07,15,02,00,16.70
2018,07,15,02,01,16.70
2018,07,15,02,02,16.70
2018,07,15,02,03,16.70
2018,07,15,02,04,16.70
2018,07,15,02,05,16.70
2018,07,15,02,06,16.60
2018,07,15,02,07,16.60
2018,07,15,02,08,16.60
2018,07,15,02,09,16.60
2018,07,15,02,10,16.60
2018,07,15,02,11,16.60
2018,07,15,02,12,16.60
2018,07,15,02,13,16.60
2018,07,15,02,14,16.60
2018,07,15,02,15,16.60
2018,07,15,02,16,16.60
2018,07,15,02,17,16.60
2018,07,15,02,18,16.60
2018,07,15,02,19,16.60
2018,07,15,02,20,16.60
2018,07,15,02,21,16.60
2018,07,15,02,22,16.60
2018,07,15,02,23,16.60
2018,07,15,02,24,16.60
2018,07,15,02,25,16.60
2018,07,15,02,26,16.50
2018,07,15,02,27,16.50
2018,07,15,02,28,16.40
2018,07,15,02,29,16.30
2018,07,15,02,30,16.10
2018,07,15,02,31,16.00
2018,07,15,02,32,15.80
2018,07,15,02,33,15.70
2018,07,15,02,34,15.60
2018,07,15,02,35,15.60
2018,07,15,02,36,15.50
2018,07,15,02,37,15.40
2018,07,15,02,38,15.30
2018,07,15,02,39,15.30
2018,07,15,02,40,15.20
2018,07,15,02,41,15.20
2018,07,15,02,42,15.20
2018,07,15,02,43,15.20
2018,07,15,02,44,15.10
2018,07,15,02,45,15.10
2018,07,15,02,46,15.10
2018,07,15,02,47,15.10
2018,07,15,02,48,15.10
2018,07,15,02,49,15.10
2018,07,15,02,50,15.10
2018,07,15,02,51,15.10
2018,07,15,02,52,15.10
2018,07,15,02,53,15.20
2018,07,15,02,54,15.20
2018,07,15,02,55,15.20
2018,07,15,02,56,15.20
2018,07,15,02,57,15.10
2018,07,15,02,58,15.10
2018,07,15,02,59,15.10
2018,07,15,03,00,15.10
2018,07,15,03,01,15.10
2018,07,15,03,02,15.10
2018,07,15,03,03,15.10
2018,07,15,03,04,15.10
2018,07,15,03,05,15.10
2018,07,15,03,06,15.10
2018,07,15,03,07,15.10
2018,07,15,03,08,15.00
2018,07,15,03,09,15.00
2018,07,15,03,10,15.00
2018,07,15,03,11,15.00
2018,07,15,03,12,15.00
2018,07,15,03,13,15.00
2018,07,15,03,14,15.00
2018,07,15,03,15,15.00
2018,07,15,03,16,15.00
2018,07,15,03,17,15.00
2018,07,15,03,18,15.00
2018,07,15,03,19,15.10
2018,07,15,03,20,15.10
2018,07,15,03,21,15.10
2018,07,15,03,22,15.10
2018,07,15,03,23,15.10
2018,07,15,03,24,15.10
2018,07,15,03,25,15.20
2018,07,15,03,26,15.20
2018,07,15,03,27,15.20
2018,07,15,03,28,15.20
2018,07,15,03,29,15.20
2018,07,15,03,30,15.20
2018,07,15,03,31,15.20
2018,07,15,03,32,15.20
2018,07,15,03,33,15.30
2018,07,15,03,34,15.30
2018,07,15,03,35,15.30
2018,07,15,03,36,15.30
2018,07,15,03,37,15.30
2018,07,15,03,38,15.30
2018,07,15,03,39,15.30
2018,07,15,03,40,15.30
2018,07,15,03,41,15.30
2018,07,15,03,42,15.30
2018,07,15,03,43,15.30
2018,07,15,03,44,15.30
2018,07,15,03,45,15.30
2018,07,15,03,46,15.30
2018,07,15,03,47,15.30
2018,07,15,03,48,15.30
2018,07,15,03,49,15.30
2018,07,15,03,50,15.30
2018,07,15,03,51,15.30
2018,07,15,03,52,15.30
2018,07,15,03,53,15.30
2018,07,15,03,54,15.30
2018,07,15,03,55,15.30
2018,07,15,03,56,15.30
2018,07,15,03,57,15.30
2018,07,15,03,58,15.30
2018,07,15,03,59,15.30
2018,07,15,04,00,15.30
2018,07,15,04,01,15.20
2018,07,15,04,02,15.20
2018,07,15,04,03,15.20
2018,07,15,04,04,15.20
2018,07,15,04,05,15.20
2018,07,15,04,06,15.20
2018,07,15,04,07,15.20
2018,07,15,04,08,15.10
2018,07,15,04,09,15.10
2018,07,15,04,10,15.10
2018,07,15,04,11,15.10
2018,07,15,04,12,15.10
2018,07,15,04,13,15.10
2018,07,15,04,14,15.10
2018,07,15,04,15,15.10
2018,07,15,04,16,15.20
2018,07,15,04,17,15.20
2018,07,15,04,18,15.20
2018,07,15,04,19,15.20
2018,07,15,04,20,15.20
2018,07,15,04,21,15.20
2018,07,15,04,22,15.20
2018,07,15,04,23,15.30
2018,07,15,04,24,15.30
2018,07,15,04,25,15.30
2018,07,15,04,26,15.30
2018,07,15,04,27,15.30
2018,07,15,04,28,15.30
2018,07,15,04,29,15.30
2018,07,15,04,30,15.20
2018,07,15,04,31,15.30
2018,07,15,04,32,15.20
2018,07,15,04,33,15.20
2018,07,15,04,34,15.20
2018,07,15,04,35,15.20
2018,07,15,04,36,15.20
2018,07,15,04,37,15.20
2018,07,15,04,38,15.20
2018,07,15,04,39,15.20
2018,07,15,04,40,15.20
2018,07,15,04,41,15.10
2018,07,15,04,42,15.10
2018,07,15,04,43,15.10
2018,07,15,04,44,15.10
2018,07,15,04,45,15.10
2018,07,15,04,46,15.10
2018,07,15,04,47,15.10
2018,07,15,04,48,15.10
2018,07,15,04,49,15.10
2018,07,15,04,50,15.10
2018,07,15,04,51,15.10
2018,07,15,04,52,15.00
2018,07,15,04,53,15.00
2018,07,15,04,54,15.00
2018,07,15,04,55,15.00
2018,07,15,04,56,15.00
2018,07,15,04,57,15.00
2018,07,15,04,58,15.00
2018,07,15,04,59,15.00
2018,07,15,05,00,14.90
2018,07,15,05,01,14.90
2018,07,15,05,02,14.90
2018,07,15,05,03,14.90
2018,07,15,05,04,14.80
2018,07,15,05,05,14.80
2018,07,15,05,06,14.80
2018,07,15,05,07,14.80
2018,07,15,05,08,14.80
2018,07,15,05,09,14.80
2018,07,15,05,10,14.80
2018,07,15,05,11,14.80
2018,07,15,05,12,14.80
2018,07,15,05,13,14.80
2018,07,15,05,14,14.90
2018,07,15,05,15,14.90
2018,07,15,05,16,14.90
2018,07,15,05,17,14.90
2018,07,15,05,18,14.90
2018,07,15,05,19,14.90
2018,07,15,05,20,14.90
2018,07,15,05,21,14.90
2018,07,15,05,22,14.90
2018,07,15,05,23,14.90
2018,07,15,05,24,14.90
2018,07,15,05,25,14.90
2018,07,15,05,26,14.90
2018,07,15,05,27,14.90
2018,07,15,05,28,14.90
2018,07,15,05,29,14.90
2018,07,15,05,30,14.90
2018,07,15,05,31,14.80
2018,07,15,05,32,14.80
2018,07,15,05,33,14.80
2018,07,15,05,34,14.70
2018,07,15,05,35,14.50
2018,07,15,05,36,14.40
2018,07,15,05,37,14.30
2018,07,15,05,38,14.20
2018,07,15,05,39,14.20
2018,07,15,05,40,14.10
2018,07,15,05,41,14.10
2018,07,15,05,42,14.10
2018,07,15,05,43,14.00
2018,07,15,05,44,14.00
2018,07,15,05,45,14.00
2018,07,15,05,46,14.00
2018,07,15,05,47,14.00
2018,07,15,05,48,14.10
2018,07,15,05,49,14.10
2018,07,15,05,50,14.10
2018,07,15,05,51,14.10
2018,07,15,05,52,14.10
2018,07,15,05,53,14.10
2018,07,15,05,54,14.10
2018,07,15,05,55,14.20
2018,07,15,05,56,14.20
2018,07,15,05,57,14.20
2018,07,15,05,58,14.20
2018,07,15,05,59,14.20
2018,07,15,06,00,14.20
2018,07,15,06,01,14.20
2018,07,15,06,02,14.20
2018,07,15,06,03,14.20
2018,07,15,06,04,14.20
2018,07,15,06,05,14.30
2018,07,15,06,06,14.30
2018,07,15,06,07,14.30
2018,07,15,06,08,14.30
2018,07,15,06,09,14.30
2018,07,15,06,10,14.30
2018,07,15,06,11,14.20
2018,07,15,06,12,14.10
2018,07,15,06,13,14.00
2018,07,15,06,14,13.90
2018,07,15,06,15,13.80
2018,07,15,06,16,13.70
2018,07,15,06,17,13.70
2018,07,15,06,18,13.60
2018,07,15,06,19,13.60
2018,07,15,06,20,13.50
2018,07,15,06,21,13.40
2018,07,15,06,22,13.40
2018,07,15,06,23,13.30
2018,07,15,06,24,13.30
2018,07,15,06,25,13.20
2018,07,15,06,26,13.20
2018,07,15,06,27,13.20
2018,07,15,06,28,13.10
2018,07,15,06,29,13.10
2018,07,15,06,30,13.00
2018,07,15,06,31,13.00
2018,07,15,06,32,13.00
2018,07,15,06,33,12.90
2018,07,15,06,34,12.90
2018,07,15,06,35,12.90
2018,07,15,06,36,12.90
2018,07,15,06,37,12.90
2018,07,15,06,38,12.90
2018,07,15,06,39,12.90
2018,07,15,06,40,12.90
2018,07,15,06,41,12.90
2018,07,15,06,42,12.90
2018,07,15,06,43,13.00
2018,07,15,06,44,13.00
2018,07,15,06,45,13.10
2018,07,15,06,46,13.10
2018,07,15,06,47,13.20
2018,07,15,06,48,13.20
2018,07,15,06,49,13.30
2018,07,15,06,50,13.30
2018,07,15,06,51,13.40
2018,07,15,06,52,13.50
2018,07,15,06,53,13.50
2018,07,15,06,54,13.60
2018,07,15,06,55,13.60
2018,07,15,06,56,13.70
2018,07,15,06,57,13.70
2018,07,15,06,58,13.90
2018,07,15,06,59,14.00
2018,07,15,07,00,14.10
2018,07,15,07,01,14.30
2018,07,15,07,02,14.40
2018,07,15,07,03,14.50
2018,07,15,07,04,14.70
2018,07,15,07,05,14.80
2018,07,15,07,06,15.00
2018,07,15,07,07,15.10
2018,07,15,07,08,15.30
2018,07,15,07,09,15.50
2018,07,15,07,10,15.60
2018,07,15,07,11,15.80
2018,07,15,07,12,15.90
2018,07,15,07,13,16.10
2018,07,15,07,14,16.20
2018,07,15,07,15,16.40
2018,07,15,07,16,16.50
2018,07,15,07,17,16.60
2018,07,15,07,18,16.80
2018,07,15,07,19,16.90
2018,07,15,07,20,17.10
2018,07,15,07,21,17.20
2018,07,15,07,22,17.40
2018,07,15,07,23,17.60
2018,07,15,07,24,17.80
2018,07,15,07,25,17.90
2018,07,15,07,26,18.10
2018,07,15,07,27,18.20
2018,07,15,07,28,18.30
2018,07,15,07,29,18.30
2018,07,15,07,30,18.40
2018,07,15,07,31,18.50
2018,07,15,07,32,18.60
2018,07,15,07,33,18.60
2018,07,15,07,34,18.70
2018,07,15,07,35,18.80
2018,07,15,07,36,18.80
2018,07,15,07,37,18.80
2018,07,15,07,38,18.80
2018,07,15,07,39,18.80
2018,07,15,07,40,18.90
2018,07,15,07,41,18.90
2018,07,15,07,42,19.00
2018,07,15,07,43,19.00
2018,07,15,07,44,19.10
2018,07,15,07,45,19.10
2018,07,15,07,46,19.20
2018,07,15,07,47,19.20
2018,07,15,07,48,19.20
2018,07,15,07,49,19.30
2018,07,15,07,50,19.30
2018,07,15,07,51,19.40
2018,07,15,07,52,19.50
2018,07,15,07,53,19.50
2018,07,15,07,54,19.60
2018,07,15,07,55,19.70
2018,07,15,07,56,19.80
2018,07,15,07,57,19.80
2018,07,15,07,58,19.80
2018,07,15,07,59,19.90
2018,07,15,08,00,19.90
2018,07,15,08,01,19.90
2018,07,15,08,02,19.90
2018,07,15,08,03,20.00
2018,07,15,08,04,19.90
2018,07,15,08,05,20.00
2018,07,15,08,06,20.00
2018,07,15,08,07,20.00
2018,07,15,08,08,20.00
2018,07,15,08,09,20.00
2018,07,15,08,10,20.00
2018,07,15,08,11,19.90
2018,07,15,08,12,19.90
2018,07,15,08,13,20.00
2018,07,15,08,14,20.00
2018,07,15,08,15,20.10
2018,07,15,08,16,20.10
2018,07,15,08,17,20.20
2018,07,15,08,18,20.20
2018,07,15,08,19,20.30
2018,07,15,08,20,20.30
2018,07,15,08,21,20.30
2018,07,15,08,22,20.40
2018,07,15,08,23,20.40
2018,07,15,08,24,20.40
2018,07,15,08,25,20.50
2018,07,15,08,26,20.50
2018,07,15,08,27,20.60
2018,07,15,08,28,20.60
2018,07,15,08,29,20.60
2018,07,15,08,30,20.60
2018,07,15,08,31,20.60
2018,07,15,08,32,20.50
2018,07,15,08,33,20.40
2018,07,15,08,34,20.40
2018,07,15,08,35,20.50
2018,07,15,08,36,20.50
2018,07,15,08,37,20.60
2018,07,15,08,38,20.70
2018,07,15,08,39,20.80
2018,07,15,08,40,20.80
2018,07,15,08,41,20.90
2018,07,15,08,42,20.90
2018,07,15,08,43,21.00
2018,07,15,08,44,21.00
2018,07,15,08,45,21.10
2018,07,15,08,46,21.20
2018,07,15,08,47,21.20
2018,07,15,08,48,21.20
2018,07,15,08,49,21.20
2018,07,15,08,50,21.20
2018,07,15,08,51,21.20
2018,07,15,08,52,21.20
2018,07,15,08,53,21.20
2018,07,15,08,54,21.30
2018,07,15,08,55,21.30
2018,07,15,08,56,21.30
2018,07,15,08,57,21.40
2018,07,15,08,58,21.40
2018,07,15,08,59,21.40
2018,07,15,09,00,21.50
2018,07,15,09,01,21.50
2018,07,15,09,02,21.60
2018,07,15,09,03,21.60
2018,07,15,09,04,21.70
2018,07,15,09,05,21.70
2018,07,15,09,06,21.70
2018,07,15,09,07,21.70
2018,07,15,09,08,21.80
2018,07,15,09,09,21.80
2018,07,15,09,10,21.80
2018,07,15,09,11,21.80
2018,07,15,09,12,21.90
2018,07,15,09,13,22.00
2018,07,15,09,14,22.10
2018,07,15,09,15,22.20
2018,07,15,09,16,22.30
2018,07,15,09,17,22.40
2018,07,15,09,18,22.40
2018,07,15,09,19,22.50
2018,07,15,09,20,22.50
2018,07,15,09,21,22.50
2018,07,15,09,22,22.60
2018,07,15,09,23,22.60
2018,07,15,09,24,22.60
2018,07,15,09,25,22.60
2018,07,15,09,26,22.70
2018,07,15,09,27,22.70
2018,07,15,09,28,22.70
2018,07,15,09,29,22.70
2018,07,15,09,30,22.70
2018,07,15,09,31,22.80
2018,07,15,09,32,22.80
2018,07,15,09,33,22.80
2018,07,15,09,34,22.80
2018,07,15,09,35,22.80
2018,07,15,09,36,22.80
2018,07,15,09,37,22.70
2018,07,15,09,38,22.70
2018,07,15,09,39,22.70
2018,07,15,09,40,22.70
2018,07,15,09,41,22.70
2018,07,15,09,42,22.70
2018,07,15,09,43,22.80
2018,07,15,09,44,22.80
2018,07,15,09,45,22.80
2018,07,15,09,46,22.80
2018,07,15,09,47,22.80
2018,07,15,09,48,22.70
2018,07,15,09,49,22.60
2018,07,15,09,50,22.40
2018,07,15,09,51,22.30
2018,07,15,09,52,22.30
2018,07,15,09,53,22.30
2018,07,15,09,54,22.30
2018,07,15,09,55,22.40
2018,07,15,09,56,22.50
2018,07,15,09,57,22.60
2018,07,15,09,58,22.60
2018,07,15,09,59,22.70
2018,07,15,10,00,22.70
2018,07,15,10,01,22.70
2018,07,15,10,02,22.80
2018,07,15,10,03,22.90
2018,07,15,10,04,23.00
2018,07,15,10,05,23.10
2018,07,15,10,06,23.00
2018,07,15,10,07,23.00
2018,07,15,10,08,23.00
2018,07,15,10,09,23.00
2018,07,15,10,10,23.00
2018,07,15,10,11,23.10
2018,07,15,10,12,23.10
2018,07,15,10,13,23.00
2018,07,15,10,14,22.90
2018,07,15,10,15,22.80
2018,07,15,10,16,22.80
2018,07,15,10,17,22.80
2018,07,15,10,18,22.80
2018,07,15,10,19,22.90
2018,07,15,10,20,23.00
2018,07,15,10,21,23.10
2018,07,15,10,22,23.10
2018,07,15,10,23,23.20
2018,07,15,10,24,23.20
2018,07,15,10,25,23.20
2018,07,15,10,26,23.20
2018,07,15,10,27,23.00
2018,07,15,10,28,22.80
2018,07,15,10,29,22.70
2018,07,15,10,30,22.70
2018,07,15,10,31,22.70
2018,07,15,10,32,22.70
2018,07,15,10,33,22.70
2018,07,15,10,34,22.70
2018,07,15,10,35,22.70
2018,07,15,10,36,22.70
2018,07,15,10,37,22.60
2018,07,15,10,38,22.60
2018,07,15,10,39,22.60
2018,07,15,10,40,22.60
2018,07,15,10,41,22.60
2018,07,15,10,42,22.60
2018,07,15,10,43,22.70
2018,07,15,10,44,22.70
2018,07,15,10,45,22.80
2018,07,15,10,46,22.90
2018,07,15,10,47,23.00
2018,07,15,10,48,23.00
2018,07,15,10,49,23.10
2018,07,15,10,50,23.10
2018,07,15,10,51,23.20
2018,07,15,10,52,23.20
2018,07,15,10,53,23.30
2018,07,15,10,54,23.30
2018,07,15,10,55,23.30
2018,07,15,10,56,23.40
2018,07,15,10,57,23.50
2018,07,15,10,58,23.60
2018,07,15,10,59,23.60
2018,07,15,11,00,23.60
2018,07,15,11,01,23.60
2018,07,15,11,02,23.60
2018,07,15,11,03,23.60
2018,07,15,11,04,23.50
2018,07,15,11,05,23.60
2018,07,15,11,06,23.50
2018,07,15,11,07,23.50
2018,07,15,11,08,23.50
2018,07,15,11,09,23.50
2018,07,15,11,10,23.50
2018,07,15,11,11,23.60
2018,07,15,11,12,23.70
2018,07,15,11,13,23.80
2018,07,15,11,14,23.80
2018,07,15,11,15,23.90
2018,07,15,11,16,23.90
2018,07,15,11,17,24.00
2018,07,15,11,18,24.00
2018,07,15,11,19,24.00
2018,07,15,11,20,24.00
2018,07,15,11,21,24.10
2018,07,15,11,22,24.20
2018,07,15,11,23,24.20
2018,07,15,11,24,24.10
2018,07,15,11,25,24.10
2018,07,15,11,26,23.90
2018,07,15,11,27,24.00
2018,07,15,11,28,24.10
2018,07,15,11,29,24.20
2018,07,15,11,30,24.20
2018,07,15,11,31,24.30
2018,07,15,11,32,24.30
2018,07,15,11,33,24.40
2018,07,15,11,34,24.40
2018,07,15,11,35,24.50
2018,07,15,11,36,24.50
2018,07,15,11,37,24.60
2018,07,15,11,38,24.60
2018,07,15,11,39,24.60
2018,07,15,11,40,24.60
2018,07,15,11,41,24.50
2018,07,15,11,42,24.50
2018,07,15,11,43,24.40
2018,07,15,11,44,24.40
2018,07,15,11,45,24.30
2018,07,15,11,46,24.30
2018,07,15,11,47,24.30
2018,07,15,11,48,24.30
2018,07,15,11,49,24.20
2018,07,15,11,50,24.20
2018,07,15,11,51,24.10
2018,07,15,11,52,24.10
2018,07,15,11,53,24.20
2018,07,15,11,54,24.20
2018,07,15,11,55,24.20
2018,07,15,11,56,24.30
2018,07,15,11,57,24.40
2018,07,15,11,58,24.50
2018,07,15,11,59,24.60
2018,07,15,12,00,24.60
2018,07,15,12,01,24.60
2018,07,15,12,02,24.60
2018,07,15,12,03,24.60
2018,07,15,12,04,24.60
2018,07,15,12,05,24.50
2018,07,15,12,06,24.40
2018,07,15,12,07,24.30
2018,07,15,12,08,24.20
2018,07,15,12,09,24.20
2018,07,15,12,10,24.20
2018,07,15,12,11,24.20
2018,07,15,12,12,24.30
2018,07,15,12,13,24.30
2018,07,15,12,14,24.30
2018,07,15,12,15,24.30
2018,07,15,12,16,24.30
2018,07,15,12,17,24.20
2018,07,15,12,18,24.20
2018,07,15,12,19,24.20
2018,07,15,12,20,24.20
2018,07,15,12,21,24.20
2018,07,15,12,22,24.20
2018,07,15,12,23,24.20
2018,07,15,12,24,24.30
2018,07,15,12,25,24.40
2018,07,15,12,26,24.50
2018,07,15,12,27,24.60
2018,07,15,12,28,24.80
2018,07,15,12,29,24.80
2018,07,15,12,30,24.90
2018,07,15,12,31,25.00
2018,07,15,12,32,25.10
2018,07,15,12,33,25.10
2018,07,15,12,34,25.00
2018,07,15,12,35,24.90
2018,07,15,12,36,24.80
2018,07,15,12,37,24.70
2018,07,15,12,38,24.70
2018,07,15,12,39,24.70
2018,07,15,12,40,24.70
2018,07,15,12,41,24.70
2018,07,15,12,42,24.80
2018,07,15,12,43,24.80
2018,07,15,12,44,24.80
2018,07,15,12,45,24.70
2018,07,15,12,46,24.70
2018,07,15,12,47,24.60
2018,07,15,12,48,24.60
2018,07,15,12,49,24.50
2018,07,15,12,50,24.50
2018,07,15,12,51,24.20
2018,07,15,12,52,24.00
2018,07,15,12,53,23.90
2018,07,15,12,54,23.80
2018,07,15,12,55,23.80
2018,07,15,12,56,23.80
2018,07,15,12,57,23.80
2018,07,15,12,58,23.70
2018,07,15,12,59,23.70
2018,07,15,13,00,23.60
2018,07,15,13,01,23.60
2018,07,15,13,02,23.50
2018,07,15,13,03,23.50
2018,07,15,13,04,23.40
2018,07,15,13,05,23.50
2018,07,15,13,06,23.50
2018,07,15,13,07,23.60
2018,07,15,13,08,23.70
2018,07,15,13,09,23.80
2018,07,15,13,10,23.80
2018,07,15,13,11,23.90
2018,07,15,13,12,24.00
2018,07,15,13,13,24.20
2018,07,15,13,14,24.30
2018,07,15,13,15,24.40
2018,07,15,13,16,24.50
2018,07,15,13,17,24.60
2018,07,15,13,18,24.60
2018,07,15,13,19,24.60
2018,07,15,13,20,24.60
2018,07,15,13,21,24.60
2018,07,15,13,22,24.50
2018,07,15,13,23,24.50
2018,07,15,13,24,24.50
2018,07,15,13,25,24.40
2018,07,15,13,26,24.30
2018,07,15,13,27,24.30
2018,07,15,13,28,24.30
2018,07,15,13,29,24.30
2018,07,15,13,30,24.30
2018,07,15,13,31,24.40
2018,07,15,13,32,24.40
2018,07,15,13,33,24.30
2018,07,15,13,34,24.30
2018,07,15,13,35,24.30
2018,07,15,13,36,24.30
2018,07,15,13,37,24.20
2018,07,15,13,38,24.20
2018,07,15,13,39,24.10
2018,07,15,13,40,24.10
2018,07,15,13,41,24.00
2018,07,15,13,42,24.00
2018,07,15,13,43,24.10
2018,07,15,13,44,24.10
2018,07,15,13,45,24.10
2018,07,15,13,46,24.10
2018,07,15,13,47,24.20
2018,07,15,13,48,24.20
2018,07,15,13,49,24.20
2018,07,15,13,50,24.20
2018,07,15,13,51,24.30
2018,07,15,13,52,24.30
2018,07,15,13,53,24.30
2018,07,15,13,54,24.30
2018,07,15,13,55,24.30
2018,07,15,13,56,24.40
2018,07,15,13,57,24.40
2018,07,15,13,58,24.40
2018,07,15,13,59,24.40
2018,07,15,14,00,24.50
2018,07,15,14,01,24.60
2018,07,15,14,02,24.60
2018,07,15,14,03,24.60
2018,07,15,14,04,24.70
2018,07,15,14,05,24.80
2018,07,15,14,06,24.90
2018,07,15,14,07,24.90
2018,07,15,14,08,24.90
2018,07,15,14,09,24.90
2018,07,15,14,10,24.90
2018,07,15,14,11,25.00
2018,07,15,14,12,25.10
2018,07,15,14,13,25.30
2018,07,15,14,14,25.50
2018,07,15,14,15,25.60
2018,07,15,14,16,25.70
2018,07,15,14,17,25.80
2018,07,15,14,18,25.90
2018,07,15,14,19,26.00
2018,07,15,14,20,26.10
2018,07,15,14,21,26.10
2018,07,15,14,22,26.00
2018,07,15,14,23,25.80
2018,07,15,14,24,25.80
2018,07,15,14,25,25.70
2018,07,15,14,26,25.60
2018,07,15,14,27,25.50
2018,07,15,14,28,25.40
2018,07,15,14,29,25.40
2018,07,15,14,30,25.40
2018,07,15,14,31,25.40
2018,07,15,14,32,25.50
2018,07,15,14,33,25.60
2018,07,15,14,34,25.80
2018,07,15,14,35,26.00
2018,07,15,14,36,26.20
2018,07,15,14,37,26.30
2018,07,15,14,38,26.40
2018,07,15,14,39,26.50
2018,07,15,14,40,26.60
2018,07,15,14,41,26.50
2018,07,15,14,42,26.50
2018,07,15,14,43,26.60
2018,07,15,14,44,26.60
2018,07,15,14,45,26.70
2018,07,15,14,46,26.70
2018,07,15,14,47,26.80
2018,07,15,14,48,26.90
2018,07,15,14,49,27.00
2018,07,15,14,50,27.10
2018,07,15,14,51,27.10
2018,07,15,14,52,27.20
2018,07,15,14,53,27.10
2018,07,15,14,54,27.10
2018,07,15,14,55,27.00
2018,07,15,14,56,26.90
2018,07,15,14,57,26.90
2018,07,15,14,58,26.90
2018,07,15,14,59,27.00
2018,07,15,15,00,27.00
2018,07,15,15,01,27.10
2018,07,15,15,02,27.20
2018,07,15,15,03,27.20
2018,07,15,15,04,27.20
2018,07,15,15,05,27.20
2018,07,15,15,06,27.20
2018,07,15,15,07,27.30
2018,07,15,15,08,27.30
2018,07,15,15,09,27.40
2018,07,15,15,10,27.40
2018,07,15,15,11,27.50
2018,07,15,15,12,27.60
2018,07,15,15,13,27.70
2018,07,15,15,14,27.70
2018,07,15,15,15,27.60
2018,07,15,15,16,27.50
2018,07,15,15,17,27.30
2018,07,15,15,18,27.20
2018,07,15,15,19,27.10
2018,07,15,15,20,27.00
2018,07,15,15,21,26.90
2018,07,15,15,22,26.80
2018,07,15,15,23,26.70
2018,07,15,15,24,26.70
2018,07,15,15,25,26.70
2018,07,15,15,26,26.70
2018,07,15,15,27,26.70
2018,07,15,15,28,26.70
2018,07,15,15,29,26.70
2018,07,15,15,30,26.80
2018,07,15,15,31,26.80
2018,07,15,15,32,26.90
2018,07,15,15,33,27.00
2018,07,15,15,34,27.00
2018,07,15,15,35,27.10
2018,07,15,15,36,27.10
2018,07,15,15,37,27.20
2018,07,15,15,38,27.30
2018,07,15,15,39,27.40
2018,07,15,15,40,27.50
2018,07,15,15,41,27.50
2018,07,15,15,42,27.50
2018,07,15,15,43,27.40
2018,07,15,15,44,27.40
2018,07,15,15,45,27.40
2018,07,15,15,46,27.30
2018,07,15,15,47,27.30
2018,07,15,15,48,27.30
2018,07,15,15,49,27.30
2018,07,15,15,50,27.30
2018,07,15,15,51,27.30
2018,07,15,15,52,27.30
2018,07,15,15,53,27.40
2018,07,15,15,54,27.50
2018,07,15,15,55,27.60
2018,07,15,15,56,27.80
2018,07,15,15,57,27.90
2018,07,15,15,58,27.90
2018,07,15,15,59,27.90
2018,07,15,16,00,27.90
2018,07,15,16,01,27.90
2018,07,15,16,02,27.80
2018,07,15,16,03,27.80
2018,07,15,16,04,27.80
2018,07,15,16,05,27.90
2018,07,15,16,06,28.00
2018,07,15,16,07,28.10
2018,07,15,16,08,28.20
2018,07,15,16,09,28.20
2018,07,15,16,10,28.10
2018,07,15,16,11,28.00
2018,07,15,16,12,28.00
2018,07,15,16,13,27.90
2018,07,15,16,14,27.90
2018,07,15,16,15,27.90
2018,07,15,16,16,27.90
2018,07,15,16,17,28.00
2018,07,15,16,18,28.10
2018,07,15,16,19,28.10
2018,07,15,16,20,28.10
2018,07,15,16,21,28.10
2018,07,15,16,22,28.20
2018,07,15,16,23,28.20
2018,07,15,16,24,28.20
2018,07,15,16,25,28.20
2018,07,15,16,26,28.20
2018,07,15,16,27,28.10
2018,07,15,16,28,28.00
2018,07,15,16,29,27.90
2018,07,15,16,30,27.90
2018,07,15,16,31,27.90
2018,07,15,16,32,27.90
2018,07,15,16,33,28.00
2018,07,15,16,34,28.20
2018,07,15,16,35,28.30
2018,07,15,16,36,28.40
2018,07,15,16,37,28.50
2018,07,15,16,38,28.50
2018,07,15,16,39,28.60
2018,07,15,16,40,28.70
2018,07,15,16,41,28.70
2018,07,15,16,42,28.70
2018,07,15,16,43,28.80
2018,07,15,16,44,28.90
2018,07,15,16,45,29.00
2018,07,15,16,46,29.00
2018,07,15,16,47,29.10
2018,07,15,16,48,29.20
2018,07,15,16,49,29.20
2018,07,15,16,50,29.30
2018,07,15,16,51,29.20
2018,07,15,16,52,29.20
2018,07,15,16,53,29.30
2018,07,15,16,54,29.30
2018,07,15,16,55,29.30
2018,07,15,16,56,29.30
2018,07,15,16,57,29.30
2018,07,15,16,58,29.40
2018,07,15,16,59,29.40
2018,07,15,17,00,29.40
2018,07,15,17,01,29.40
2018,07,15,17,02,29.40
2018,07,15,17,03,29.40
2018,07,15,17,04,29.40
2018,07,15,17,05,29.40
2018,07,15,17,06,29.40
2018,07,15,17,07,29.40
2018,07,15,17,08,29.40
2018,07,15,17,09,29.30
2018,07,15,17,10,29.30
2018,07,15,17,11,29.30
2018,07,15,17,12,29.30
2018,07,15,17,13,29.30
2018,07,15,17,14,29.30
2018,07,15,17,15,29.30
2018,07,15,17,16,29.30
2018,07,15,17,17,29.30
2018,07,15,17,18,29.30
2018,07,15,17,19,29.30